Weather History for KLVJ - April, 2014

Change the Weather History Date:

Monday, April 7, 2014

  Actual Average (KHOU) Record (KHOU)
Temperature  
Mean Temperature 64 °F 68 °F  
Max Temperature 75 °F 78 °F 91 °F (1907)
Min Temperature 53 °F 57 °F 32 °F (1971)
Degree Days  
Heating Degree Days 1 2  
Month to date heating degree days 14  
Since 1 July heating degree days 1343  
Cooling Degree Days 0 4  
Month to date cooling degree days 28  
Year to date cooling degree days 137  
Growing Degree Days 14 (Base 50)    
Moisture  
Dew Point 49 °F    
Average Humidity 67    
Maximum Humidity 86    
Minimum Humidity 38    
Precipitation  
Precipitation 0.00 in 0.10 in 2.28 in (1993)
Month to date precipitation 0.70  
Year to date precipitation 10.69  
Sea Level Pressure  
Sea Level Pressure 29.86 in    
Wind  
Wind Speed 9 mph (NW)    
Max Wind Speed 12 mph    
Max Gust Speed -    
Visibility 9 miles    
Events      
T = Trace of Precipitation, MM = Missing Value Source: NWS Daily Summary

Daily Weather History Graph

Daily Weather History Graph

Search for Another Location

Airport or City:

Trip Planner

Search our weather history database for the weather conditions in past years. The results will help you decide how hot, cold, wet, or windy it might be!

Date:

Astronomy

Apr. 07, 2014 Rise Set
Actual Time 7:03 AM CDT 7:43 PM CDT
Civil Twilight 6:39 AM CDT 8:07 PM CDT
Nautical Twilight 6:11 AM CDT 8:35 PM CDT
Astronomical Twilight 5:42 AM CDT 9:04 PM CDT
Moon 1:11 PM CDT (4/7) 2:08 AM CDT (4/7)
Length of Visible Light 13h 27m
Length of Day
12h 39m
First Quarter, 53% of the Moon is Illuminated
Apr 7
First Quarter
Apr 15
Full
Apr 22
Last Quarter
Apr 29
New
May 6
First Quarter

Hourly Weather History & Observations

Time (CDT) Temp. Dew Point Humidity Pressure Visibility Wind Dir Wind Speed Gust Speed Precip Events Conditions
12:53 AM 55.9 °F 50.0 °F 80% 29.80 in 10.0 mi NW 11.5 mph - N/A   Overcast
1:53 AM 55.0 °F 50.0 °F 83% 29.80 in 8.0 mi NW 11.5 mph - N/A   Overcast
2:15 AM 55.0 °F 50.0 °F 83% 29.79 in 7.0 mi NW 9.2 mph - N/A   Overcast
2:53 AM 55.0 °F 50.0 °F 83% 29.79 in 7.0 mi NW 6.9 mph - N/A   Overcast
3:28 AM 54.0 °F 48.9 °F 83% 29.78 in 8.0 mi NNW 6.9 mph - N/A   Scattered Clouds
3:53 AM 54.0 °F 48.9 °F 83% 29.78 in 8.0 mi NNW 6.9 mph - N/A   Clear
4:40 AM 53.1 °F 48.9 °F 86% 29.78 in 8.0 mi NNW 5.8 mph - N/A   Mostly Cloudy
4:53 AM 53.1 °F 48.9 °F 86% 29.79 in 9.0 mi NNW 6.9 mph - N/A   Overcast
5:53 AM 54.0 °F 48.9 °F 83% 29.82 in 10.0 mi NNW 9.2 mph - N/A   Overcast
6:53 AM 54.0 °F 48.9 °F 83% 29.84 in 10.0 mi North 10.4 mph - N/A   Overcast
7:53 AM 54.0 °F 48.0 °F 80% 29.86 in 9.0 mi NNW 10.4 mph - N/A   Overcast
8:53 AM 55.0 °F 48.9 °F 80% 29.89 in 9.0 mi North 8.1 mph - N/A   Overcast
9:53 AM 55.9 °F 48.0 °F 75% 29.91 in 9.0 mi North 9.2 mph - N/A   Overcast
10:53 AM 59.0 °F 48.9 °F 69% 29.91 in 10.0 mi Variable 3.5 mph - N/A   Mostly Cloudy
10:59 AM 59.0 °F 48.9 °F 69% 29.91 in 10.0 mi NW 9.2 mph - N/A   Scattered Clouds
11:53 AM 62.1 °F 48.9 °F 62% 29.92 in 10.0 mi NNW 6.9 mph - N/A   Clear
12:53 PM 66.9 °F 50.0 °F 54% 29.90 in 10.0 mi NNW 10.4 mph - N/A   Clear
1:53 PM 70.0 °F 48.9 °F 47% 29.88 in 10.0 mi NNW 8.1 mph - N/A   Clear
3:53 PM 73.9 °F 48.0 °F 40% 29.84 in 10.0 mi NNW 6.9 mph - N/A   Clear
4:53 PM 73.9 °F 48.0 °F 40% 29.84 in 10.0 mi WNW 9.2 mph - N/A   Clear
5:53 PM 75.0 °F 48.0 °F 38% 29.85 in 10.0 mi NW 8.1 mph - N/A   Clear
6:53 PM 73.0 °F 48.0 °F 41% 29.86 in 10.0 mi WNW 4.6 mph - N/A   Clear
7:53 PM 69.1 °F 50.0 °F 51% 29.91 in 10.0 mi West 6.9 mph - N/A   Clear
8:53 PM 66.9 °F 51.1 °F 57% 29.92 in 10.0 mi NW 8.1 mph - N/A   Clear
9:53 PM 66.0 °F 52.0 °F 60% 29.98 in 10.0 mi NW 10.4 mph - N/A   Clear
10:53 PM 64.9 °F 51.1 °F 61% 30.01 in 10.0 mi NNW 8.1 mph - N/A   Scattered Clouds
11:53 PM 62.1 °F 50.0 °F 65% 29.99 in 10.0 mi Calm Calm - N/A   Clear